Regional Weather Roundup
Issued by NWS

Home | Current Version | Previous Version | Text Only | Print | Product List | Glossary On
Versions: 1 2 3 4 5 6 7 8 9 10 11 12 13 14 15 16 17 18 19 20 21 22 23 24 25 26 27 28 29 30 31 32 33 34 35 36 37 38 39 40 41 42 43 44 45 46 47 48 49 50
000
ASUS46 KSTO 241715
RWRCA

NORTHERN AND CENTRAL CA REGIONAL WEATHER ROUNDUP
NATIONAL WEATHER SERVICE SACRAMENTO CA
1000 AM PDT TUE APR 24 2018

NOTE: FAIR INDICATES FEW OR NO CLOUDS BELOW 12,000 FEET WITH NO
SIGNIFICANT WEATHER AND/OR OBSTRUCTIONS TO VISIBILITY.

CAZ001-003-241800-
NORTHWEST AREA

CITY           SKY/WX    TMP DP  RH WIND       PRES   REMARKS
CRESCENT CITY  MOSUNNY   60  48  64 S9        29.98S
UKIAH          SUNNY     61  47  59 CALM      30.00S
$$

CAZ006-505>513-241800-
BAY AREA

CITY           SKY/WX    TMP DP  RH WIND       PRES   REMARKS
SANTA ROSA     CLOUDY    53  51  93 S3        30.01S FOG
SAN RAFAEL     N/A       51  MM  MM MISG
NAPA           CLOUDY    54  51  90 NW3       30.03R
CONCORD        SUNNY     63  52  67 W6        30.01R
OAKLAND CITY   N/A      MM  MM  MM MISG
OAKLAND        CLOUDY    54  49  83 W6        30.04R
SAN FRAN CITY  N/A       53  MM  79 MISG
SAN FRAN ARPT  PTSUNNY   57  48  72 NW9       30.03R
LIVERMORE      CLOUDY    57  54  89 W3        30.02R FOG
HAYWARD        CLOUDY    57  48  72 N3        30.03R
REDWOOD CITY   N/A       60  MM  73 MISG
MOFFETT ARPT   CLOUDY    59  52  77 CALM      30.03R
SAN JOSE ARPT  PTSUNNY   59  52  77 SE3       30.03R HAZE
$$
CAZ034-037-514>518-241800-
CENTRAL COAST

CITY           SKY/WX    TMP DP  RH WIND       PRES   REMARKS
WATSONVILLE    CLOUDY    52  50  93 SE5       30.04S FOG
SALINAS        MOSUNNY   56  48  74 E3        30.03S
MONTEREY       MOSUNNY   54  47  77 NW5       30.04R
SAN LUIS OBISP CLOUDY    54  49  83 CALM      30.04R
SANTA MARIA    CLOUDY    54  49  83 VRB5      30.04R
$$
CAZ015-016-241800-
NORTHERN SACRAMENTO VALLEY

CITY           SKY/WX    TMP DP  RH WIND       PRES   REMARKS
REDDING        SUNNY     76  34  21 N8        29.97F
RED BLUFF      SUNNY     73  41  31 N10       29.98S
OROVILLE       SUNNY     69  53  56 VRB3      29.99R
$$
CAZ016>018-241800-
SOUTHERN SACRAMENTO VALLEY

CITY           SKY/WX    TMP DP  RH WIND       PRES   REMARKS
AUBURN         SUNNY     73  43  33 CALM      30.01R
LINCOLN        FAIR      64  54  68 CALM      29.98R
MARYSVILLE     SUNNY     67  56  67 CALM      29.98S
SAC INTL ARPT  PTSUNNY   64  54  69 CALM      29.97S
MATHER AIRPORT SUNNY     63  54  72 CALM      29.97R
DOWNTOWN SAC   N/A       68  MM  MM MISG
SAC EXEC ARPT  SUNNY     64  54  69 W3        29.98R
VACAVILLE      SUNNY     69  54  58 CALM      29.99R
TRAVIS AFB     SUNNY     62  53  72 SW16      29.97R
$$
CAZ019>021-241800-
SAN JOAQUIN VALLEY

CITY           SKY/WX    TMP DP  RH WIND       PRES   REMARKS
STOCKTON       SUNNY     69  54  58 NW6       29.98R
MODESTO        SUNNY     69  53  56 NW7       29.97R
MERCED         SUNNY     71  53  52 N7        29.96R
LEMOORE        PTSUNNY   74  50  42 N5        29.97S
FRESNO         PTSUNNY   75  48  38 SE13      29.98R
HANFORD        MOSUNNY   70  51  51 CALM      29.98R
PORTERVILLE    SUNNY     76  45  33 S7        29.99
BAKERSFIELD    SUNNY     79  41  25 S5        29.97F
$$
CAZ011-012-071-241800-
NORTHERN MOUNTAINS

CITY           SKY/WX    TMP DP  RH WIND       PRES   REMARKS
YREKA          SUNNY     62  29  28 CALM      30.13F
ALTURAS        SUNNY     61  21  21 VRB7      30.20S
$$
CAZ011-012-071-241800-
SIERRA NEVADA MTNS

CITY           SKY/WX    TMP DP  RH WIND       PRES   REMARKS
BLUE CANYON    SUNNY     63  25  23 VRB6      30.16R
TRUCKEE        PTSUNNY   52  28  40 N5        30.23S
TAHOE VLY ARPT SUNNY     55  30  38 NE5       30.22S
MAMMOTH LAKES  FAIR      59  24  26 SE6       30.25S
$$



USA.gov is the U.S. government's official web portal to all federal, state and local government web resources and services.